Flag for U.S.A. Weather past 2 weeks in Pomona, California, U.S.A.

Now
56 °F

Fog.


Feels Like: 54 °F
Forecast: 55 / 75 °F
Wind: 7 mph from West

Location: Chino Airport


UV Index: 0 (Low)

Visibility: 5 mi


Pressure: 29.86 "Hg

Humidity: 93%

Dew point: 54 °F

Location of PomonaLocation

Historic Weather in Pomona

°F

Pomona temperature yesterday

Maximum temperature yesterday: 79 °F (at 1:53 PM)
Minimum temperature yesterday: 50 °F (at 3:53 AM)
Average temperature yesterday: 62 °F

Past Weeks' High & Low Weather Summary

 TemperatureHumidityPressure
High94 °F (Apr 8, 2:53 PM)100% (Apr 16, 5:53 AM)30.15 "Hg (Apr 16, 5:53 AM)
Low40 °F (Apr 3, 5:53 AM)6% (Apr 9, 3:53 PM)29.77 "Hg (Apr 16, 3:53 PM)
Average63 °F56%29.98 "Hg
* Reported Apr 2 5:53 AM — Apr 17 5:53 AM, Pomona, Weather by CustomWeather, © 2014

Note: Actual official high and low records may vary slightly from our data, if they occured in-between our weather recording intervals... More about our weather records

Advertising

Historic Weather Conditions — Data for Previous 24 hours

 ConditionsComfort  
Time TempWeatherWind HumidityBarometerVisibility
5:53 AM
Apr 17
56 °FFog.7 mph93%29.86 "Hg5 mi
4:53 AM53 °FFog.7 mph96%29.85 "Hg5 mi
3:53 AM50 °FFog.5 mph96%29.84 "Hg5 mi
2:53 AM53 °FFog.No wind93%29.84 "Hg4 mi
1:53 AM53 °FFog.No wind93%29.86 "Hg4 mi
12:53 AM55 °FFog.No wind90%29.88 "Hg6 mi
11:53 PM
Apr 16
55 °FClear.No wind90%29.87 "Hg7 mi
10:53 PM56 °FClear.7 mph87%29.86 "Hg7 mi
9:53 PM58 °FClear.6 mph81%29.85 "Hg7 mi
8:53 PM61 °FClear.8 mph75%29.83 "Hg8 mi
7:53 PM63 °FSunny.12 mph70%29.81 "Hg10 mi
6:53 PM67 °FSunny.10 mph59%29.79 "Hg10 mi
5:53 PM71 °FSunny.14 mph49%29.78 "Hg10 mi
4:53 PM74 °FSunny.14 mph46%29.77 "Hg10 mi
3:53 PM77 °FSunny.16 mph40%29.77 "Hg10 mi
2:53 PM79 °FSunny.10 mph35%29.78 "Hg10 mi
1:53 PM79 °FSunny.9 mph34%29.79 "Hg10 mi
12:53 PM75 °FSunny.No wind42%29.81 "Hg10 mi
11:53 AM71 °FSunny.3 mph49%29.84 "Hg6 mi
10:53 AM66 °FSunny.No wind61%29.87 "Hg5 mi
9:53 AM61 °FSunny.No wind72%29.86 "Hg4 mi
8:53 AM56 °FFog.3 mph87%29.88 "Hg4 mi
7:53 AM54 °FFog.5 mph93%29.87 "Hg3 mi
Weather by CustomWeather, © 2014

See weather overview